TimeCDT,TemperatureF,Dew PointF,Humidity,Sea Level PressureIn,VisibilityMPH,Wind Direction,Wind SpeedMPH,Gust SpeedMPH,PrecipitationIn,Events,Conditions,WindDirDegrees,DateUTC
12:56 AM,65.8,63.0,90,30.04,10.0,NNE,10.4,-,N/A,,Overcast,20,2013-08-14 05:56:00
1:56 AM,63.9,61.0,90,30.05,10.0,NNE,9.2,-,N/A,,Clear,20,2013-08-14 06:56:00
2:56 AM,63.0,59.9,90,30.05,10.0,North,8.1,-,N/A,,Clear,10,2013-08-14 07:56:00
3:56 AM,61.9,59.0,90,30.06,10.0,North,5.8,-,N/A,,Partly Cloudy,10,2013-08-14 08:56:00
4:56 AM,59.9,57.9,93,30.07,10.0,Calm,Calm,-,N/A,,Clear,0,2013-08-14 09:56:00
5:56 AM,56.8,56.8,100,30.09,10.0,Calm,Calm,-,N/A,,Clear,0,2013-08-14 10:56:00
6:56 AM,59.9,59.0,97,30.11,10.0,Calm,Calm,-,N/A,,Clear,0,2013-08-14 11:56:00
7:56 AM,61.9,57.9,87,30.12,10.0,NE,11.5,-,N/A,,Partly Cloudy,40,2013-08-14 12:56:00
8:56 AM,64.9,56.8,75,30.13,10.0,NE,9.2,-,N/A,,Clear,50,2013-08-14 13:56:00
9:56 AM,66.9,54.9,65,30.14,10.0,NE,11.5,-,N/A,,Partly Cloudy,40,2013-08-14 14:56:00
10:56 AM,70.0,55.9,61,30.14,10.0,NE,10.4,-,N/A,,Clear,40,2013-08-14 15:56:00
11:56 AM,70.9,57.9,63,30.14,10.0,NE,6.9,-,N/A,,Partly Cloudy,50,2013-08-14 16:56:00
12:56 PM,72.9,57.9,59,30.12,10.0,North,8.1,-,N/A,,Partly Cloudy,360,2013-08-14 17:56:00
1:56 PM,72.0,55.9,57,30.12,10.0,NNE,9.2,-,N/A,,Partly Cloudy,30,2013-08-14 18:56:00
2:56 PM,73.9,55.9,53,30.12,10.0,NE,9.2,-,N/A,,Partly Cloudy,50,2013-08-14 19:56:00
3:56 PM,73.9,56.8,55,30.10,10.0,North,9.2,-,N/A,,Clear,10,2013-08-14 20:56:00
4:56 PM,72.9,54.9,53,30.10,10.0,NNE,11.5,-,N/A,,Clear,30,2013-08-14 21:56:00
5:56 PM,70.9,54.9,57,30.10,10.0,NNE,6.9,-,N/A,,Clear,20,2013-08-14 22:56:00
6:56 PM,68.9,56.8,65,30.11,10.0,NNE,5.8,-,N/A,,Scattered Clouds,20,2013-08-14 23:56:00
7:56 PM,63.0,56.8,80,30.13,10.0,Calm,Calm,-,N/A,,Partly Cloudy,0,2013-08-15 00:56:00
8:56 PM,57.9,57.9,100,30.14,10.0,NE,4.6,-,N/A,,Clear,50,2013-08-15 01:56:00
9:56 PM,56.8,56.8,100,30.14,10.0,Calm,Calm,-,N/A,,Clear,0,2013-08-15 02:56:00
10:56 PM,56.8,55.9,97,30.14,10.0,NNE,4.6,-,N/A,,Clear,20,2013-08-15 03:56:00
11:56 PM,54.9,54.9,100,30.15,10.0,Calm,Calm,-,N/A,,Clear,0,2013-08-15 04:56:00